STARLINK-36839, 68125

Orbit data source: Space-Track

STARLINK-36839, 68125 is a payload satellite owned by SpaceX/Seattle (US) in SSO that was launched on Sun, 08 Mar 2026 UTC via an FALCON 9 launch vehicle from the Air Force Western Test Range (AFWTR). Payload-class satellites include a variety of spacecraft equipped with specific instruments for various scientific and technological missions. These include communications satellites like Starlink; space stations such as the ISS; scientific satellites like the Hubble; Earth observation satellites from companies like Planet Labs, Umbra, and HawkEye 360; GPS; miniature CubeSats for education and research; and military/defense satellites.

Loading next visibility...
Identifier
68125, 2026-044AA
Orbit
SSO
Country
Flag of USUS
Related business
Manufacturer
SpaceX/Seattle
Mission
Operational Commercial Communications
Bus & Motor
STARLINK V2MO, Unknown motor
Mass
575 kg wet, ~530 kg dry
Launch date (UTC)
2026-03-08 (6 months ago)
Launch vehicle
FALCON 9
Launch site
Air Force Western Test Range (AFWTR)
Object type
Payload
Rocket body
Debris
Shape & HBR
Box + 1 Pan, 17.7 m
Radar Cross Section
41.120 m², Large (>1 m²)

Expand to show TLE details & history
Last TLE update: 15 hours ago

TLE from 15 hours ago
0 STARLINK-36839
1 68125U 26044AA  26246.80728876  .00016543  00000-0  51391-3 0  9995
2 68125  97.2851 206.0553 0002027  88.8907 271.2568 15.33425183 28880
Epoch: 2026-09-03T19:22Z
TLE epoch observation values (Epoch: 2026-09-03T19:22:29.748Z)
Latitude
-0.00004°
Longitude
-67.50881°
Altitude
468.684 km
Speed
7.632 km/s
True Right ascension
13h 44m 13s
True Declination
0° 00' 00"
Sunlit
Object was in daylight at epoch
Visualization orbit readout
Latitude
Unknown
Longitude
Unknown
Altitude
Unknown
Speed
Unknown
Apparent Right ascension
Unknown
Apparent Declination
Unknown
Sunlit
N/A
Visualization observer readout
Local Sidereal Time
01:56:53
Azimuth
Unknown
Elevation
Unknown
Doppler factor
Unknown
Orbital elements
Apogee altitude
463.932 km
Perigee altitude
461.158 km
Semi-major axis
6,840.682 km
Eccentricity
0.0002
Inclination
97.2851°
RAAN
206.0553°
Arg. of periapsis
88.8907°
True anomaly
271.23358°
Mean anomaly
271.2568°
Eccentric anomaly
271.24519°
Mean motion
3.83614 °/min
Orbital period
93.84 mins
BSTAR
0.00051391
Loading maneuver chart data...
Computing Atmospheric mass density...
Loading historical data...
Loading historical data...
Loading historical data...
Loading historical data...
Loading historical data...
Loading historical data...
Loading historical data...

Documentation

Showing up to 5 results
|